This demonstration page uses our WeatherBlox Daily Observations layout. Learn more.

41.86663, -103.66717

Hourly Observations for January 5, 2020

Temp ( °F °C ) Dew Point ( °F °C ) Humidity (%) Winds ( mph kmh ) Pressure ( in mb ) Visibility ( mi km ) Precip ( " mm )
12:53 am 00:53 Clear 37 2.8 25 -3.9 62 62 WNW 15 24 30.19 1022 10 16.0934 0 0
1:53 am 01:53 Partly Cloudy 36 2.2 25 -3.9 64 64 NW 14 22 30.23 1024 10 16.0934 0 0
2:53 am 02:53 Mostly Clear 34 1.1 24 -4.4 67 67 NW 17 28 30.27 1025 10 16.0934 0 0
3:53 am 03:53 Clear 35 1.7 13 -10.6 40 40 NW 20 31 30.29 1026 10 16.0934 0 0
4:53 am 04:53 Clear 32 0 13 -10.6 45 45 WNW 18 30 30.32 1027 10 16.0934 0 0
5:53 am 05:53 Clear 31 -0.6 12 -11.1 45 45 NW 21 33 30.3 1026 10 16.0934 0 0
6:53 am 06:53 Clear 29 -1.7 12 -11.1 49 49 W 7 11 30.35 1028 10 16.0934 0 0
7:53 am 07:53 Sunny 28 -2.2 13 -10.6 53 53 NW 5 7 30.37 1029 10 16.0934 0 0
8:53 am 08:53 Sunny 33 0.6 12 -11.1 42 42 WNW 9 15 30.37 1028 10 16.0934 0 0
9:53 am 09:53 Sunny 36 2.2 13 -10.6 39 39 NNW 8 13 30.36 1028 10 16.0934 0 0
10:53 am 10:53 Sunny 39 3.9 11 -11.7 31 31 N 7 11 30.32 1027 10 16.0934 0 0
11:53 am 11:53 Sunny 39 3.9 11 -11.7 31 31 NNE 9 15 30.28 1025 10 16.0934 0 0
12:53 pm 12:53 Sunny 38 3.3 12 -11.1 34 34 NE 3 6 30.26 1025 10 16.0934 0 0
1:53 pm 13:53 Sunny 37 2.8 12 -11.1 36 36 SE 5 7 30.24 1024 10 16.0934 0 0
2:53 pm 14:53 Sunny 37 2.8 13 -10.6 37 37 SSE 9 15 30.22 1023 10 16.0934 0 0
3:53 pm 15:53 Sunny 36 2.2 16 -8.9 44 44 SE 12 19 30.22 1023 10 16.0934 0 0
4:53 pm 16:53 Cloudy 32 0 19 -7.2 59 59 E 7 11 30.21 1023 10 16.0934 0 0
5:53 pm 17:53 Mostly Clear 30 -1.1 18 -7.8 61 61 E 7 11 30.21 1023 10 16.0934 0 0
6:53 pm 18:53 Mostly Clear 30 -1.1 19 -7.2 64 64 E 7 11 30.21 1023 10 16.0934 0 0
7:53 pm 19:53 Cloudy 32 0 20 -6.7 61 61 ESE 7 11 30.19 1022 10 16.0934 0 0
8:53 pm 20:53 Cloudy 33 0.6 20 -6.7 58 58 ESE 9 15 30.16 1021 10 16.0934 0 0
9:53 pm 21:53 Mostly Clear 36 2.2 25 -3.9 64 64 SSW 12 19 30.11 1020 10 16.0934 0 0
10:53 pm 22:53 Clear 38 3.3 25 -3.9 60 60 WSW 16 26 30.08 1019 10 16.0934 0 0
11:53 pm 23:53 Mostly Clear 36 2.2 24 -4.4 62 62 W 18 30 30.08 1019 10 16.0934 0 0

Powered by AerisWeather